Time,TemperatureF,DewpointF,PressureIn,WindDirection,WindDirectionDegrees,WindSpeedMPH,WindSpeedGustMPH,Humidity,HourlyPrecipIn,Conditions,Clouds,dailyrainin,SoftwareType,DateUTC
2013-01-09 00:03:00,29.5,9.8,30.35,SW,214,7.6,7.6,43,0.00,,,0.00,VWS V14.01,2013-01-09 06:03:00,
2013-01-09 00:08:00,29.5,9.8,30.35,SW,228,10.5,10.5,43,0.00,,,0.00,VWS V14.01,2013-01-09 06:08:00,
2013-01-09 00:13:00,29.5,9.8,30.35,SW,235,4.0,5.4,43,0.00,,,0.00,VWS V14.01,2013-01-09 06:13:00,
2013-01-09 00:18:00,29.5,9.8,30.35,SW,216,8.3,8.7,43,0.00,,,0.00,VWS V14.01,2013-01-09 06:18:00,
2013-01-09 00:23:00,29.7,9.9,30.35,SW,234,5.4,5.4,43,0.00,,,0.00,VWS V14.01,2013-01-09 06:23:00,
2013-01-09 00:28:00,29.8,10.1,30.35,SSW,208,5.8,8.1,43,0.00,,,0.00,VWS V14.01,2013-01-09 06:28:00,
2013-01-09 00:33:00,30.0,9.7,30.35,SSW,192,5.8,6.3,42,0.00,,,0.00,VWS V14.01,2013-01-09 06:33:00,
2013-01-09 00:38:00,30.2,10.4,30.35,SW,217,6.3,6.3,43,0.00,,,0.00,VWS V14.01,2013-01-09 06:38:00,
2013-01-09 00:43:00,30.7,10.4,30.38,SSW,207,4.5,4.5,42,0.00,,,0.00,VWS V14.01,2013-01-09 06:43:00,
2013-01-09 00:49:00,31.1,10.2,30.38,SW,236,8.7,8.7,41,0.00,,,0.00,VWS V14.01,2013-01-09 06:49:00,
2013-01-09 00:54:00,31.1,10.2,30.38,SSW,212,10.1,10.1,41,0.00,,,0.00,VWS V14.01,2013-01-09 06:54:00,
2013-01-09 00:59:00,31.5,9.9,30.35,SW,230,7.2,8.3,40,0.00,,,0.00,VWS V14.01,2013-01-09 06:59:00,
2013-01-09 01:04:00,31.8,9.7,30.35,WSW,246,3.6,6.3,39,0.00,,,0.00,VWS V14.01,2013-01-09 07:04:00,
2013-01-09 01:09:00,32.0,9.3,30.35,SW,231,8.1,8.1,38,0.00,,,0.00,VWS V14.01,2013-01-09 07:09:00,
2013-01-09 01:14:00,32.2,8.2,30.35,SSW,195,8.1,8.3,36,0.00,,,0.00,VWS V14.01,2013-01-09 07:14:00,
2013-01-09 01:19:00,32.4,7.8,30.35,SSW,205,7.6,7.6,35,0.00,,,0.00,VWS V14.01,2013-01-09 07:19:00,
2013-01-09 01:24:00,32.5,7.9,30.35,SW,232,4.9,6.3,35,0.00,,,0.00,VWS V14.01,2013-01-09 07:24:00,
2013-01-09 01:29:00,32.5,7.3,30.35,WSW,249,5.4,5.4,34,0.00,,,0.00,VWS V14.01,2013-01-09 07:29:00,
2013-01-09 01:34:00,32.7,7.5,30.35,SW,226,2.7,3.1,34,0.00,,,0.00,VWS V14.01,2013-01-09 07:34:00,
2013-01-09 01:39:00,32.7,7.5,30.35,SW,235,3.6,4.9,34,0.00,,,0.00,VWS V14.01,2013-01-09 07:39:00,
2013-01-09 01:44:00,32.7,7.5,30.35,SW,226,6.3,6.3,34,0.00,,,0.00,VWS V14.01,2013-01-09 07:44:00,
2013-01-09 01:49:00,32.9,7.6,30.35,SSW,206,8.3,8.7,34,0.00,,,0.00,VWS V14.01,2013-01-09 07:49:00,
2013-01-09 01:55:00,32.7,7.5,30.38,SW,214,5.8,5.8,34,0.00,,,0.00,VWS V14.01,2013-01-09 07:55:00,
2013-01-09 02:00:00,32.4,7.1,30.38,SSW,212,6.3,6.3,34,0.00,,,0.00,VWS V14.01,2013-01-09 08:00:00,
2013-01-09 02:05:00,32.0,7.5,30.38,SW,217,5.4,6.7,35,0.00,,,0.00,VWS V14.01,2013-01-09 08:05:00,
2013-01-09 02:10:00,31.6,7.8,30.38,SW,220,5.8,6.3,36,0.00,,,0.00,VWS V14.01,2013-01-09 08:10:00,
2013-01-09 02:15:00,31.5,9.4,30.38,SSW,209,8.1,8.1,39,0.00,,,0.00,VWS V14.01,2013-01-09 08:15:00,
2013-01-09 02:20:00,31.3,9.8,30.38,SSW,208,6.3,7.6,40,0.00,,,0.00,VWS V14.01,2013-01-09 08:20:00,
2013-01-09 02:25:00,31.1,9.6,30.38,SSW,196,7.2,7.6,40,0.00,,,0.00,VWS V14.01,2013-01-09 08:25:00,
2013-01-09 02:30:00,30.9,10.0,30.38,SSW,213,7.6,8.3,41,0.00,,,0.00,VWS V14.01,2013-01-09 08:30:00,
2013-01-09 02:35:00,31.1,10.7,30.38,SW,222,8.1,8.1,42,0.00,,,0.00,VWS V14.01,2013-01-09 08:35:00,
2013-01-09 02:40:00,31.3,10.9,30.38,SSW,209,8.7,8.7,42,0.00,,,0.00,VWS V14.01,2013-01-09 08:40:00,
2013-01-09 02:45:00,31.5,11.0,30.38,SSW,193,5.8,7.6,42,0.00,,,0.00,VWS V14.01,2013-01-09 08:45:00,
2013-01-09 02:50:00,32.0,12.1,30.38,SW,228,8.7,10.1,43,0.00,,,0.00,VWS V14.01,2013-01-09 08:50:00,
2013-01-09 02:55:00,32.0,11.5,30.38,SW,214,5.8,6.7,42,0.00,,,0.00,VWS V14.01,2013-01-09 08:55:00,
2013-01-09 03:01:00,32.2,11.7,30.38,WSW,244,5.8,8.3,42,0.00,,,0.00,VWS V14.01,2013-01-09 09:01:00,
2013-01-09 03:06:00,32.2,11.7,30.38,WSW,248,6.3,11.0,42,0.00,,,0.00,VWS V14.01,2013-01-09 09:06:00,
2013-01-09 03:11:00,32.2,11.7,30.38,WSW,252,6.3,6.3,42,0.00,,,0.00,VWS V14.01,2013-01-09 09:11:00,
2013-01-09 03:16:00,32.4,11.3,30.38,WSW,246,15.4,15.4,41,0.00,,,0.00,VWS V14.01,2013-01-09 09:16:00,
2013-01-09 03:21:00,32.5,11.5,30.38,SW,218,7.2,8.7,41,0.00,,,0.00,VWS V14.01,2013-01-09 09:21:00,
2013-01-09 03:26:00,32.7,11.1,30.38,SW,233,5.8,14.5,40,0.00,,,0.00,VWS V14.01,2013-01-09 09:26:00,
2013-01-09 03:31:00,32.9,9.5,30.38,WSW,243,10.5,11.0,37,0.00,,,0.00,VWS V14.01,2013-01-09 09:31:00,
2013-01-09 03:36:00,33.1,9.1,30.38,SW,227,9.2,12.3,36,0.00,,,0.00,VWS V14.01,2013-01-09 09:36:00,
2013-01-09 03:41:00,33.1,7.8,30.41,SW,228,11.0,12.3,34,0.00,,,0.00,VWS V14.01,2013-01-09 09:41:00,
2013-01-09 03:46:00,33.1,7.8,30.41,WSW,250,8.1,8.1,34,0.00,,,0.00,VWS V14.01,2013-01-09 09:46:00,
2013-01-09 03:52:00,33.3,7.3,30.41,WSW,252,11.9,11.9,33,0.00,,,0.00,VWS V14.01,2013-01-09 09:52:00,
2013-01-09 03:57:00,33.3,6.6,30.41,SW,233,5.8,15.4,32,0.00,,,0.00,VWS V14.01,2013-01-09 09:57:00,
2013-01-09 04:02:00,33.6,6.9,30.41,WSW,241,15.4,15.4,32,0.00,,,0.00,VWS V14.01,2013-01-09 10:02:00,
2013-01-09 04:07:00,33.8,6.4,30.41,WSW,250,10.5,15.9,31,0.00,,,0.00,VWS V14.01,2013-01-09 10:07:00,
2013-01-09 04:12:00,33.6,6.2,30.41,WSW,248,15.4,15.4,31,0.00,,,0.00,VWS V14.01,2013-01-09 10:12:00,
2013-01-09 04:17:00,33.8,6.4,30.41,SW,223,12.3,17.0,31,0.00,,,0.00,VWS V14.01,2013-01-09 10:17:00,
2013-01-09 04:22:00,33.8,5.7,30.41,WSW,243,17.4,17.4,30,0.00,,,0.00,VWS V14.01,2013-01-09 10:22:00,
2013-01-09 04:27:00,33.6,5.5,30.41,SW,226,13.2,15.4,30,0.00,,,0.00,VWS V14.01,2013-01-09 10:27:00,
2013-01-09 04:32:00,33.8,3.4,30.41,West,268,21.9,21.9,27,0.00,,,0.00,VWS V14.01,2013-01-09 10:32:00,
2013-01-09 04:37:00,34.0,3.5,30.41,WSW,258,24.6,24.6,27,0.00,,,0.00,VWS V14.01,2013-01-09 10:37:00,
2013-01-09 04:42:00,34.0,1.9,30.41,West,263,13.2,13.2,25,0.00,,,0.00,VWS V14.01,2013-01-09 10:42:00,
2013-01-09 04:47:00,34.0,1.9,30.41,WSW,255,17.4,22.8,25,0.00,,,0.00,VWS V14.01,2013-01-09 10:47:00,
2013-01-09 04:52:00,34.0,3.5,30.41,West,261,13.2,14.1,27,0.00,,,0.00,VWS V14.01,2013-01-09 10:52:00,
2013-01-09 04:57:00,33.8,3.4,30.44,WSW,240,17.9,17.9,27,0.00,,,0.00,VWS V14.01,2013-01-09 10:57:00,
2013-01-09 05:03:00,33.8,5.7,30.44,West,265,16.3,16.3,30,0.00,,,0.00,VWS V14.01,2013-01-09 11:03:00,
2013-01-09 05:08:00,33.8,5.7,30.44,SW,231,16.8,19.2,30,0.00,,,0.00,VWS V14.01,2013-01-09 11:08:00,
2013-01-09 05:13:00,33.8,5.7,30.44,SW,226,14.5,17.0,30,0.00,,,0.00,VWS V14.01,2013-01-09 11:13:00,
2013-01-09 05:18:00,33.4,5.3,30.44,West,265,11.0,15.9,30,0.00,,,0.00,VWS V14.01,2013-01-09 11:18:00,
2013-01-09 05:23:00,33.3,5.2,30.44,West,262,15.0,15.4,30,0.00,,,0.00,VWS V14.01,2013-01-09 11:23:00,
2013-01-09 05:28:00,33.3,5.2,30.44,SW,217,11.0,17.9,30,0.00,,,0.00,VWS V14.01,2013-01-09 11:28:00,
2013-01-09 05:33:00,33.1,5.0,30.44,WSW,254,14.1,19.7,30,0.00,,,0.00,VWS V14.01,2013-01-09 11:33:00,
2013-01-09 05:38:00,32.9,4.9,30.44,West,280,20.1,20.1,30,0.00,,,0.00,VWS V14.01,2013-01-09 11:38:00,
2013-01-09 05:43:00,32.7,4.7,30.44,SW,226,8.7,10.5,30,0.00,,,0.00,VWS V14.01,2013-01-09 11:43:00,
2013-01-09 05:48:00,32.5,4.6,30.44,WSW,248,11.0,11.9,30,0.00,,,0.00,VWS V14.01,2013-01-09 11:48:00,
2013-01-09 05:53:00,32.4,4.4,30.44,WSW,250,10.5,17.0,30,0.00,,,0.00,VWS V14.01,2013-01-09 11:53:00,
2013-01-09 05:58:00,32.4,2.9,30.47,West,264,10.1,15.4,28,0.00,,,0.00,VWS V14.01,2013-01-09 11:58:00,
2013-01-09 06:04:00,32.4,2.9,30.47,WSW,256,11.0,18.8,28,0.00,,,0.00,VWS V14.01,2013-01-09 12:04:00,
2013-01-09 06:09:00,32.4,0.5,30.47,WNW,287,19.7,19.7,25,0.00,,,0.00,VWS V14.01,2013-01-09 12:09:00,
2013-01-09 06:14:00,32.4,-1.3,30.47,West,279,13.2,26.6,23,0.00,,,0.00,VWS V14.01,2013-01-09 12:14:00,
2013-01-09 06:19:00,32.2,-1.4,30.47,West,276,14.1,22.4,23,0.00,,,0.00,VWS V14.01,2013-01-09 12:19:00,
2013-01-09 06:24:00,32.2,-1.4,30.50,WSW,255,19.7,20.6,23,0.00,,,0.00,VWS V14.01,2013-01-09 12:24:00,
2013-01-09 06:29:00,32.0,-1.6,30.50,West,281,19.7,19.7,23,0.00,,,0.00,VWS V14.01,2013-01-09 12:29:00,
2013-01-09 06:34:00,32.0,-1.6,30.50,West,264,20.6,23.3,23,0.00,,,0.00,VWS V14.01,2013-01-09 12:34:00,
2013-01-09 06:39:00,31.8,-1.8,30.50,West,264,29.8,29.8,23,0.00,,,0.00,VWS V14.01,2013-01-09 12:39:00,
2013-01-09 06:45:00,31.8,-1.8,30.50,WSW,239,8.3,11.0,23,0.00,,,0.00,VWS V14.01,2013-01-09 12:45:00,
2013-01-09 06:50:00,31.5,-2.0,30.50,WNW,287,22.4,22.4,23,0.00,,,0.00,VWS V14.01,2013-01-09 12:50:00,
2013-01-09 06:55:00,31.5,-2.0,30.50,NW,304,12.8,19.7,23,0.00,,,0.00,VWS V14.01,2013-01-09 12:55:00,
2013-01-09 07:00:00,31.3,-2.2,30.50,West,259,18.8,18.8,23,0.00,,,0.00,VWS V14.01,2013-01-09 13:00:00,
2013-01-09 07:05:00,31.3,-2.2,30.50,WNW,282,5.8,12.8,23,0.00,,,0.00,VWS V14.01,2013-01-09 13:05:00,
2013-01-09 07:10:00,31.1,-2.4,30.53,West,267,10.1,15.4,23,0.00,,,0.00,VWS V14.01,2013-01-09 13:10:00,
2013-01-09 07:15:00,31.1,-2.4,30.53,WNW,285,8.3,15.0,23,0.00,,,0.00,VWS V14.01,2013-01-09 13:15:00,
2013-01-09 07:20:00,30.7,-2.7,30.53,West,281,10.5,17.4,23,0.00,,,0.00,VWS V14.01,2013-01-09 13:20:00,
2013-01-09 07:25:00,30.6,-5.7,30.53,NW,305,12.8,15.0,20,0.00,,,0.00,VWS V14.01,2013-01-09 13:25:00,
2013-01-09 07:30:00,30.6,-5.7,30.53,West,265,14.1,15.4,20,0.00,,,0.00,VWS V14.01,2013-01-09 13:30:00,
2013-01-09 07:35:00,30.2,-3.1,30.53,WNW,285,8.3,15.9,23,0.00,,,0.00,VWS V14.01,2013-01-09 13:35:00,
2013-01-09 07:40:00,30.2,-3.1,30.53,West,261,12.8,17.0,23,0.00,,,0.00,VWS V14.01,2013-01-09 13:40:00,
2013-01-09 07:45:00,30.0,-3.3,30.53,WSW,257,10.5,20.6,23,0.00,,,0.00,VWS V14.01,2013-01-09 13:45:00,
2013-01-09 07:50:00,29.8,-3.4,30.53,WNW,283,10.5,12.3,23,0.00,,,0.00,VWS V14.01,2013-01-09 13:50:00,
2013-01-09 07:55:00,29.8,-3.4,30.55,NW,308,10.1,11.0,23,0.00,,,0.00,VWS V14.01,2013-01-09 13:55:00,
2013-01-09 08:00:00,29.7,-3.6,30.55,NW,313,8.1,8.1,23,0.00,,,0.00,VWS V14.01,2013-01-09 14:00:00,
2013-01-09 08:06:00,29.7,-3.6,30.55,WNW,284,11.0,17.0,23,0.00,,,0.00,VWS V14.01,2013-01-09 14:06:00,
2013-01-09 08:11:00,29.7,-3.6,30.55,West,279,11.0,17.0,23,0.00,,,0.00,VWS V14.01,2013-01-09 14:11:00,
2013-01-09 08:16:00,29.7,-6.5,30.55,WNW,289,8.1,8.3,20,0.00,,,0.00,VWS V14.01,2013-01-09 14:16:00,
2013-01-09 08:21:00,29.7,-6.5,30.55,WSW,247,15.0,15.0,20,0.00,,,0.00,VWS V14.01,2013-01-09 14:21:00,
2013-01-09 08:26:00,29.7,-6.5,30.55,WNW,296,12.8,19.7,20,0.00,,,0.00,VWS V14.01,2013-01-09 14:26:00,
2013-01-09 08:31:00,29.7,-6.5,30.55,WNW,288,25.5,25.5,20,0.00,,,0.00,VWS V14.01,2013-01-09 14:31:00,
2013-01-09 08:36:00,29.5,-6.6,30.55,WNW,288,11.0,17.4,20,0.00,,,0.00,VWS V14.01,2013-01-09 14:36:00,
2013-01-09 08:41:00,29.5,-6.6,30.58,WNW,294,13.2,13.2,20,0.00,,,0.00,VWS V14.01,2013-01-09 14:41:00,
2013-01-09 08:46:00,29.5,-6.6,30.58,WSW,256,15.0,15.9,20,0.00,,,0.00,VWS V14.01,2013-01-09 14:46:00,
2013-01-09 08:51:00,29.5,-6.6,30.58,NW,310,15.0,15.0,20,0.00,,,0.00,VWS V14.01,2013-01-09 14:51:00,
2013-01-09 08:56:00,29.5,-6.6,30.58,NW,310,10.5,12.8,20,0.00,,,0.00,VWS V14.01,2013-01-09 14:56:00,
2013-01-09 09:01:00,29.5,-6.6,30.58,West,264,6.3,15.4,20,0.00,,,0.00,VWS V14.01,2013-01-09 15:01:00,
2013-01-09 09:06:00,29.5,-6.6,30.58,WNW,301,8.3,15.4,20,0.00,,,0.00,VWS V14.01,2013-01-09 15:06:00,
2013-01-09 09:11:00,29.5,-6.6,30.58,WNW,292,8.7,14.5,20,0.00,,,0.00,VWS V14.01,2013-01-09 15:11:00,
2013-01-09 09:16:00,29.5,-6.6,30.58,WSW,241,5.8,13.2,20,0.00,,,0.00,VWS V14.01,2013-01-09 15:16:00,
2013-01-09 09:21:00,29.5,-6.6,30.58,West,264,12.3,12.8,20,0.00,,,0.00,VWS V14.01,2013-01-09 15:21:00,
2013-01-09 09:26:00,29.5,-6.6,30.61,WNW,290,15.4,15.4,20,0.00,,,0.00,VWS V14.01,2013-01-09 15:26:00,
2013-01-09 09:31:00,29.5,-6.6,30.61,WNW,289,10.1,15.0,20,0.00,,,0.00,VWS V14.01,2013-01-09 15:31:00,
2013-01-09 09:36:00,29.5,-6.6,30.61,WNW,287,11.0,11.0,20,0.00,,,0.00,VWS V14.01,2013-01-09 15:36:00,
2013-01-09 09:41:00,29.5,-6.6,30.61,West,278,11.0,11.0,20,0.00,,,0.00,VWS V14.01,2013-01-09 15:41:00,
2013-01-09 09:46:00,29.3,-6.8,30.61,WSW,245,11.0,11.0,20,0.00,,,0.00,VWS V14.01,2013-01-09 15:46:00,
2013-01-09 09:51:00,29.5,-6.6,30.61,West,268,12.8,14.5,20,0.00,,,0.00,VWS V14.01,2013-01-09 15:51:00,
2013-01-09 09:56:00,29.5,-6.6,30.61,West,273,11.0,12.3,20,0.00,,,0.00,VWS V14.01,2013-01-09 15:56:00,
2013-01-09 10:02:00,29.7,-6.5,30.61,WNW,284,11.0,11.0,20,0.00,,,0.00,VWS V14.01,2013-01-09 16:02:00,
2013-01-09 10:07:00,29.7,-6.5,30.61,NW,318,12.8,14.1,20,0.00,,,0.00,VWS V14.01,2013-01-09 16:07:00,
2013-01-09 10:12:00,29.7,-6.5,30.61,NW,308,5.8,12.8,20,0.00,,,0.00,VWS V14.01,2013-01-09 16:12:00,
2013-01-09 10:17:00,29.7,-6.5,30.61,WNW,287,10.1,10.5,20,0.00,,,0.00,VWS V14.01,2013-01-09 16:17:00,
2013-01-09 10:22:00,29.8,-6.3,30.61,NW,305,10.5,10.5,20,0.00,,,0.00,VWS V14.01,2013-01-09 16:22:00,
2013-01-09 10:27:00,29.8,-6.3,30.61,WSW,254,8.3,11.9,20,0.00,,,0.00,VWS V14.01,2013-01-09 16:27:00,
2013-01-09 10:32:00,29.8,-6.3,30.61,WNW,286,4.0,6.3,20,0.00,,,0.00,VWS V14.01,2013-01-09 16:32:00,
2013-01-09 10:37:00,30.2,-6.0,30.61,NW,312,6.7,6.7,20,0.00,,,0.00,VWS V14.01,2013-01-09 16:37:00,
2013-01-09 10:42:00,30.2,-8.2,30.61,WNW,284,8.1,8.1,18,0.00,,,0.00,VWS V14.01,2013-01-09 16:42:00,
2013-01-09 10:47:00,30.2,-8.2,30.61,WNW,293,12.3,12.8,18,0.00,,,0.00,VWS V14.01,2013-01-09 16:47:00,
2013-01-09 10:52:00,30.2,-8.2,30.61,West,270,10.5,10.5,18,0.00,,,0.00,VWS V14.01,2013-01-09 16:52:00,
2013-01-09 10:58:00,30.2,-8.2,30.61,West,264,10.1,11.9,18,0.00,,,0.00,VWS V14.01,2013-01-09 16:58:00,
2013-01-09 11:03:00,30.2,-8.2,30.61,West,273,8.7,10.5,18,0.00,,,0.00,VWS V14.01,2013-01-09 17:03:00,
2013-01-09 11:08:00,30.2,-8.2,30.61,WSW,257,8.1,10.5,18,0.00,,,0.00,VWS V14.01,2013-01-09 17:08:00,
2013-01-09 11:13:00,30.4,-8.0,30.61,West,276,5.8,8.7,18,0.00,,,0.00,VWS V14.01,2013-01-09 17:13:00,
2013-01-09 11:18:00,30.4,-8.0,30.61,West,278,5.8,9.2,18,0.00,,,0.00,VWS V14.01,2013-01-09 17:18:00,
2013-01-09 11:23:00,30.7,-7.7,30.61,WNW,284,3.6,5.8,18,0.00,,,0.00,VWS V14.01,2013-01-09 17:23:00,
2013-01-09 11:28:00,30.9,-7.6,30.64,West,270,7.2,10.5,18,0.00,,,0.00,VWS V14.01,2013-01-09 17:28:00,
2013-01-09 11:33:00,31.1,-7.4,30.64,SW,234,6.3,6.7,18,0.00,,,0.00,VWS V14.01,2013-01-09 17:33:00,
2013-01-09 11:38:00,30.7,-7.7,30.64,WSW,239,8.1,8.7,18,0.00,,,0.00,VWS V14.01,2013-01-09 17:38:00,
2013-01-09 11:43:00,30.9,-7.6,30.64,SW,226,5.8,6.7,18,0.00,,,0.00,VWS V14.01,2013-01-09 17:43:00,
2013-01-09 11:48:00,31.3,-7.3,30.64,West,270,3.6,6.3,18,0.00,,,0.00,VWS V14.01,2013-01-09 17:48:00,
2013-01-09 11:53:00,31.6,-7.0,30.64,SW,225,4.9,4.9,18,0.00,,,0.00,VWS V14.01,2013-01-09 17:53:00,
2013-01-09 11:58:00,32.0,-6.7,30.67,West,264,7.6,7.6,18,0.00,,,0.00,VWS V14.01,2013-01-09 17:58:00,
2013-01-09 12:03:00,31.8,-6.8,30.67,WSW,248,8.1,8.1,18,0.00,,,0.00,VWS V14.01,2013-01-09 18:03:00,
2013-01-09 12:09:00,31.3,-7.3,30.67,West,263,10.1,10.5,18,0.00,,,0.00,VWS V14.01,2013-01-09 18:09:00,
2013-01-09 12:14:00,31.6,-7.0,30.67,SW,234,12.3,12.3,18,0.00,,,0.00,VWS V14.01,2013-01-09 18:14:00,
2013-01-09 12:19:00,31.8,-6.8,30.67,SSW,211,5.8,8.7,18,0.00,,,0.00,VWS V14.01,2013-01-09 18:19:00,
2013-01-09 12:24:00,31.8,-6.8,30.67,WSW,239,15.0,15.4,18,0.00,,,0.00,VWS V14.01,2013-01-09 18:24:00,
2013-01-09 12:29:00,31.5,-7.2,30.70,SW,232,7.6,13.6,18,0.00,,,0.00,VWS V14.01,2013-01-09 18:29:00,
2013-01-09 12:34:00,31.6,-7.0,30.70,SW,229,10.1,10.1,18,0.00,,,0.00,VWS V14.01,2013-01-09 18:34:00,
2013-01-09 12:39:00,32.0,-6.7,30.70,SW,224,12.8,12.8,18,0.00,,,0.00,VWS V14.01,2013-01-09 18:39:00,
2013-01-09 12:41:00,32.0,-6.7,30.70,WSW,244,9.2,10.5,18,0.00,,,0.00,VWS V14.01,2013-01-09 18:41:00,
2013-01-09 12:42:00,32.0,-6.7,30.70,SW,218,10.1,10.1,18,0.00,,,0.00,VWS V14.01,2013-01-09 18:42:00,
2013-01-09 12:44:00,31.8,-6.8,30.70,SW,218,8.7,13.6,18,0.00,,,0.00,VWS V14.01,2013-01-09 18:44:00,
2013-01-09 12:45:00,31.5,-7.2,30.70,WSW,258,15.0,15.0,18,0.00,,,0.00,VWS V14.01,2013-01-09 18:45:00,
2013-01-09 12:48:00,31.3,-7.3,30.70,SW,221,15.0,15.0,18,0.00,,,0.00,VWS V14.01,2013-01-09 18:48:00,
2013-01-09 12:49:00,31.1,-7.4,30.70,SW,223,15.4,15.4,18,0.00,,,0.00,VWS V14.01,2013-01-09 18:49:00,
2013-01-09 12:50:00,31.1,-7.4,30.70,SW,229,15.0,15.4,18,0.00,,,0.00,VWS V14.01,2013-01-09 18:50:00,
2013-01-09 12:55:00,31.1,-7.4,30.70,West,264,15.4,15.4,18,0.00,,,0.00,VWS V14.01,2013-01-09 18:55:00,
2013-01-09 13:00:00,31.1,-7.4,30.70,WSW,240,13.2,13.2,18,0.00,,,0.00,VWS V14.01,2013-01-09 19:00:00,
2013-01-09 13:05:00,31.3,-7.3,30.70,WSW,247,13.2,15.0,18,0.00,,,0.00,VWS V14.01,2013-01-09 19:05:00,
2013-01-09 13:10:00,31.8,-6.8,30.73,SW,219,7.6,7.6,18,0.00,,,0.00,VWS V14.01,2013-01-09 19:10:00,
2013-01-09 13:15:00,32.0,-6.7,30.73,WSW,247,8.7,8.7,18,0.00,,,0.00,VWS V14.01,2013-01-09 19:15:00,
2013-01-09 13:20:00,31.8,-6.8,30.73,West,271,8.1,11.0,18,0.00,,,0.00,VWS V14.01,2013-01-09 19:20:00,
2013-01-09 13:25:00,31.8,-6.8,30.73,WSW,244,3.1,3.1,18,0.00,,,0.00,VWS V14.01,2013-01-09 19:25:00,
2013-01-09 13:30:00,31.8,-6.8,30.73,West,261,12.8,12.8,18,0.00,,,0.00,VWS V14.01,2013-01-09 19:30:00,
2013-01-09 13:35:00,31.8,-6.8,30.73,West,266,8.3,8.3,18,0.00,,,0.00,VWS V14.01,2013-01-09 19:35:00,
2013-01-09 13:40:00,31.8,-6.8,30.73,SW,236,5.8,8.7,18,0.00,,,0.00,VWS V14.01,2013-01-09 19:40:00,
2013-01-09 13:45:00,32.2,-6.6,30.73,WSW,237,7.6,10.5,18,0.00,,,0.00,VWS V14.01,2013-01-09 19:45:00,
2013-01-09 13:50:00,32.2,-6.6,30.73,SW,234,6.7,7.6,18,0.00,,,0.00,VWS V14.01,2013-01-09 19:50:00,
2013-01-09 13:55:00,32.5,-6.2,30.73,WSW,239,8.1,8.1,18,0.00,,,0.00,VWS V14.01,2013-01-09 19:55:00,
2013-01-09 14:00:00,32.5,-6.2,30.73,WSW,240,7.6,7.6,18,0.00,,,0.00,VWS V14.01,2013-01-09 20:00:00,
2013-01-09 14:05:00,32.9,-5.9,30.73,SW,232,8.7,8.7,18,0.00,,,0.00,VWS V14.01,2013-01-09 20:05:00,
2013-01-09 14:10:00,33.1,-5.8,30.73,WSW,237,8.3,10.5,18,0.00,,,0.00,VWS V14.01,2013-01-09 20:10:00,
2013-01-09 14:16:00,32.9,-5.9,30.73,SW,229,7.6,8.7,18,0.00,,,0.00,VWS V14.01,2013-01-09 20:16:00,
2013-01-09 14:21:00,33.1,-5.8,30.73,SW,227,8.1,8.3,18,0.00,,,0.00,VWS V14.01,2013-01-09 20:21:00,
2013-01-09 14:26:00,33.3,-5.7,30.76,SSW,210,8.3,8.3,18,0.00,,,0.00,VWS V14.01,2013-01-09 20:26:00,
2013-01-09 14:31:00,33.1,-5.8,30.76,SSW,199,6.3,8.3,18,0.00,,,0.00,VWS V14.01,2013-01-09 20:31:00,
2013-01-09 14:36:00,32.9,-5.9,30.76,SW,216,7.2,8.3,18,0.00,,,0.00,VWS V14.01,2013-01-09 20:36:00,
2013-01-09 14:41:00,32.9,-5.9,30.76,SW,228,5.8,8.1,18,0.00,,,0.00,VWS V14.01,2013-01-09 20:41:00,
2013-01-09 14:46:00,32.7,-6.1,30.76,SSW,200,8.1,10.1,18,0.00,,,0.00,VWS V14.01,2013-01-09 20:46:00,
2013-01-09 14:51:00,32.5,-6.2,30.76,SSW,206,12.3,12.3,18,0.00,,,0.00,VWS V14.01,2013-01-09 20:51:00,
2013-01-09 14:56:00,32.4,-6.4,30.79,SW,234,13.2,13.2,18,0.00,,,0.00,VWS V14.01,2013-01-09 20:56:00,
2013-01-09 15:01:00,32.2,-6.6,30.79,WSW,248,6.3,8.3,18,0.00,,,0.00,VWS V14.01,2013-01-09 21:01:00,
2013-01-09 15:06:00,32.2,-6.6,30.79,SW,214,3.6,8.1,18,0.00,,,0.00,VWS V14.01,2013-01-09 21:06:00,
2013-01-09 15:11:00,32.5,-6.2,30.79,SW,220,5.8,10.1,18,0.00,,,0.00,VWS V14.01,2013-01-09 21:11:00,
2013-01-09 15:16:00,32.5,-6.2,30.79,SW,235,10.5,10.5,18,0.00,,,0.00,VWS V14.01,2013-01-09 21:16:00,
2013-01-09 15:21:00,32.5,-6.2,30.79,SW,226,7.6,11.9,18,0.00,,,0.00,VWS V14.01,2013-01-09 21:21:00,
2013-01-09 15:26:00,32.2,-6.6,30.76,SW,230,4.0,6.3,18,0.00,,,0.00,VWS V14.01,2013-01-09 21:26:00,
2013-01-09 15:31:00,32.0,-6.7,30.76,West,267,5.8,10.5,18,0.00,,,0.00,VWS V14.01,2013-01-09 21:31:00,
2013-01-09 15:36:00,32.2,-6.6,30.76,SW,222,7.6,8.7,18,0.00,,,0.00,VWS V14.01,2013-01-09 21:36:00,
2013-01-09 15:41:00,32.0,-6.7,30.79,SSW,194,5.8,8.7,18,0.00,,,0.00,VWS V14.01,2013-01-09 21:41:00,
2013-01-09 15:46:00,32.0,-6.7,30.79,SW,226,9.2,9.2,18,0.00,,,0.00,VWS V14.01,2013-01-09 21:46:00,
2013-01-09 15:51:00,32.0,-6.7,30.79,SW,222,4.0,5.4,18,0.00,,,0.00,VWS V14.01,2013-01-09 21:51:00,
2013-01-09 15:56:00,31.8,-6.8,30.79,South,191,4.9,4.9,18,0.00,,,0.00,VWS V14.01,2013-01-09 21:56:00,
2013-01-09 16:01:00,31.6,-7.0,30.79,WSW,258,5.4,5.4,18,0.00,,,0.00,VWS V14.01,2013-01-09 22:01:00,
2013-01-09 16:06:00,31.8,-6.8,30.79,WSW,254,5.4,5.4,18,0.00,,,0.00,VWS V14.01,2013-01-09 22:06:00,
2013-01-09 16:11:00,31.6,-7.0,30.79,SSW,208,4.9,6.3,18,0.00,,,0.00,VWS V14.01,2013-01-09 22:11:00,
2013-01-09 16:16:00,31.5,-7.2,30.79,SW,230,4.0,4.0,18,0.00,,,0.00,VWS V14.01,2013-01-09 22:16:00,
2013-01-09 16:22:00,31.3,-7.3,30.79,SW,220,3.6,4.9,18,0.00,,,0.00,VWS V14.01,2013-01-09 22:22:00,
2013-01-09 16:27:00,31.1,-7.4,30.79,SSW,203,3.6,4.9,18,0.00,,,0.00,VWS V14.01,2013-01-09 22:27:00,
2013-01-09 16:32:00,30.9,-7.6,30.79,SSW,212,7.6,7.6,18,0.00,,,0.00,VWS V14.01,2013-01-09 22:32:00,
2013-01-09 16:37:00,30.2,-8.2,30.79,SSW,209,5.4,7.6,18,0.00,,,0.00,VWS V14.01,2013-01-09 22:37:00,
2013-01-09 16:42:00,29.8,-8.5,30.79,SSW,213,4.9,7.6,18,0.00,,,0.00,VWS V14.01,2013-01-09 22:42:00,
2013-01-09 16:47:00,29.5,-6.6,30.79,SW,216,10.1,10.1,20,0.00,,,0.00,VWS V14.01,2013-01-09 22:47:00,
2013-01-09 16:52:00,29.3,-6.8,30.79,SSW,200,7.6,7.6,20,0.00,,,0.00,VWS V14.01,2013-01-09 22:52:00,
2013-01-09 16:57:00,29.1,-6.9,30.79,SW,226,3.6,4.0,20,0.00,,,0.00,VWS V14.01,2013-01-09 22:57:00,
2013-01-09 17:02:00,29.1,-6.9,30.79,SW,223,3.1,5.4,20,0.00,,,0.00,VWS V14.01,2013-01-09 23:02:00,
2013-01-09 17:07:00,28.9,-4.2,30.79,SW,215,6.3,6.3,23,0.00,,,0.00,VWS V14.01,2013-01-09 23:07:00,
2013-01-09 17:12:00,28.8,-4.3,30.79,SW,217,5.4,6.3,23,0.00,,,0.00,VWS V14.01,2013-01-09 23:12:00,
2013-01-09 17:17:00,28.6,-4.5,30.79,SSW,205,4.0,4.0,23,0.00,,,0.00,VWS V14.01,2013-01-09 23:17:00,
2013-01-09 17:22:00,28.4,-4.7,30.79,SSW,205,0.0,0.0,23,0.00,,,0.00,VWS V14.01,2013-01-09 23:22:00,
2013-01-09 17:28:00,28.2,-2.2,30.76,SSW,207,0.0,0.0,26,0.00,,,0.00,VWS V14.01,2013-01-09 23:28:00,
2013-01-09 17:33:00,28.2,-2.2,30.76,SSW,207,0.0,0.0,26,0.00,,,0.00,VWS V14.01,2013-01-09 23:33:00,
2013-01-09 17:38:00,27.9,-2.6,30.76,SSW,207,0.0,0.0,26,0.00,,,0.00,VWS V14.01,2013-01-09 23:38:00,
2013-01-09 17:43:00,27.9,-2.6,30.76,SSW,207,0.0,0.0,26,0.00,,,0.00,VWS V14.01,2013-01-09 23:43:00,
2013-01-09 17:48:00,27.5,-2.9,30.76,SSW,207,0.0,0.0,26,0.00,,,0.00,VWS V14.01,2013-01-09 23:48:00,
2013-01-09 17:53:00,27.0,-3.3,30.76,SSW,207,0.0,0.0,26,0.00,,,0.00,VWS V14.01,2013-01-09 23:53:00,
2013-01-09 17:58:00,26.2,-4.0,30.76,SSW,207,0.0,0.0,26,0.00,,,0.00,VWS V14.01,2013-01-09 23:58:00,
2013-01-09 18:03:00,26.1,-0.4,30.76,SSW,207,0.0,0.0,31,0.00,,,0.00,VWS V14.01,2013-01-10 00:03:00,
2013-01-09 18:08:00,26.1,0.2,30.76,South,178,0.0,0.0,32,0.00,,,0.00,VWS V14.01,2013-01-10 00:08:00,
2013-01-09 18:14:00,25.7,0.6,30.76,South,182,5.4,5.4,33,0.00,,,0.00,VWS V14.01,2013-01-10 00:14:00,
2013-01-09 18:19:00,25.7,1.2,30.76,South,172,3.1,3.1,34,0.00,,,0.00,VWS V14.01,2013-01-10 00:19:00,
2013-01-09 18:24:00,25.3,0.3,30.76,South,172,0.0,0.0,33,0.00,,,0.00,VWS V14.01,2013-01-10 00:24:00,
2013-01-09 18:29:00,25.0,-0.1,30.76,South,172,0.0,0.0,33,0.00,,,0.00,VWS V14.01,2013-01-10 00:29:00,
2013-01-09 18:34:00,25.0,-0.1,30.76,South,172,0.0,0.0,33,0.00,,,0.00,VWS V14.01,2013-01-10 00:34:00,
2013-01-09 18:39:00,24.8,-0.2,30.76,South,172,0.0,0.0,33,0.00,,,0.00,VWS V14.01,2013-01-10 00:39:00,
2013-01-09 18:44:00,24.8,-0.2,30.76,South,172,0.0,0.0,33,0.00,,,0.00,VWS V14.01,2013-01-10 00:44:00,
2013-01-09 18:49:00,24.4,0.1,30.76,South,172,0.0,0.0,34,0.00,,,0.00,VWS V14.01,2013-01-10 00:49:00,
2013-01-09 18:54:00,24.3,-0.1,30.76,South,172,0.0,0.0,34,0.00,,,0.00,VWS V14.01,2013-01-10 00:54:00,
2013-01-09 18:59:00,24.1,-0.2,30.73,South,172,0.0,0.0,34,0.00,,,0.00,VWS V14.01,2013-01-10 00:59:00,
2013-01-09 19:04:00,23.9,-0.4,30.73,South,172,0.0,0.0,34,0.00,,,0.00,VWS V14.01,2013-01-10 01:04:00,
2013-01-09 19:09:00,23.9,0.2,30.76,South,172,0.0,0.0,35,0.00,,,0.00,VWS V14.01,2013-01-10 01:09:00,
2013-01-09 19:14:00,24.1,0.4,30.76,South,172,0.0,0.0,35,0.00,,,0.00,VWS V14.01,2013-01-10 01:14:00,
2013-01-09 19:19:00,24.1,0.4,30.76,South,172,0.0,0.0,35,0.00,,,0.00,VWS V14.01,2013-01-10 01:19:00,
2013-01-09 19:24:00,24.1,0.4,30.76,South,172,0.0,0.0,35,0.00,,,0.00,VWS V14.01,2013-01-10 01:24:00,
2013-01-09 19:29:00,23.9,0.8,30.76,South,172,0.0,0.0,36,0.00,,,0.00,VWS V14.01,2013-01-10 01:29:00,
2013-01-09 19:34:00,23.9,0.8,30.76,South,172,0.0,0.0,36,0.00,,,0.00,VWS V14.01,2013-01-10 01:34:00,
2013-01-09 19:39:00,23.5,0.5,30.76,South,172,0.0,0.0,36,0.00,,,0.00,VWS V14.01,2013-01-10 01:39:00,
2013-01-09 19:44:00,23.5,1.1,30.73,South,172,3.6,4.0,37,0.00,,,0.00,VWS V14.01,2013-01-10 01:44:00,
2013-01-09 19:49:00,23.5,2.8,30.73,South,170,0.0,0.0,40,0.00,,,0.00,VWS V14.01,2013-01-10 01:49:00,
2013-01-09 19:54:00,23.4,2.6,30.76,South,170,0.0,0.0,40,0.00,,,0.00,VWS V14.01,2013-01-10 01:54:00,
2013-01-09 19:59:00,23.2,2.5,30.76,South,170,0.0,0.0,40,0.00,,,0.00,VWS V14.01,2013-01-10 01:59:00,
2013-01-09 20:04:00,23.4,3.7,30.76,South,173,4.0,4.0,42,0.00,,,0.00,VWS V14.01,2013-01-10 02:04:00,
2013-01-09 20:09:00,23.2,3.5,30.76,South,173,2.7,2.7,42,0.00,,,0.00,VWS V14.01,2013-01-10 02:09:00,
2013-01-09 20:14:00,23.0,3.3,30.76,South,174,0.0,0.0,42,0.00,,,0.00,VWS V14.01,2013-01-10 02:14:00,
2013-01-09 20:19:00,22.8,3.2,30.76,South,174,0.0,0.0,42,0.00,,,0.00,VWS V14.01,2013-01-10 02:19:00,
2013-01-09 20:24:00,22.5,2.8,30.76,South,174,0.0,0.0,42,0.00,,,0.00,VWS V14.01,2013-01-10 02:24:00,
2013-01-09 20:29:00,22.6,3.0,30.76,South,177,0.0,0.0,42,0.00,,,0.00,VWS V14.01,2013-01-10 02:29:00,
2013-01-09 20:35:00,22.8,3.7,30.76,South,177,0.0,0.0,43,0.00,,,0.00,VWS V14.01,2013-01-10 02:35:00,
2013-01-09 20:40:00,22.8,3.7,30.73,South,177,0.0,0.0,43,0.00,,,0.00,VWS V14.01,2013-01-10 02:40:00,
2013-01-09 20:45:00,23.0,3.8,30.73,South,177,0.0,0.0,43,0.00,,,0.00,VWS V14.01,2013-01-10 02:45:00,
2013-01-09 20:50:00,22.8,3.7,30.73,South,177,0.0,0.0,43,0.00,,,0.00,VWS V14.01,2013-01-10 02:50:00,
2013-01-09 20:55:00,22.5,3.4,30.73,South,177,0.0,0.0,43,0.00,,,0.00,VWS V14.01,2013-01-10 02:55:00,
2013-01-09 21:00:00,22.3,3.2,30.73,South,177,0.0,0.0,43,0.00,,,0.00,VWS V14.01,2013-01-10 03:00:00,
2013-01-09 21:05:00,22.1,3.0,30.73,South,177,0.0,0.0,43,0.00,,,0.00,VWS V14.01,2013-01-10 03:05:00,
2013-01-09 21:10:00,22.1,3.0,30.73,South,177,0.0,0.0,43,0.00,,,0.00,VWS V14.01,2013-01-10 03:10:00,
2013-01-09 21:15:00,21.7,2.2,30.73,South,177,0.0,0.0,42,0.00,,,0.00,VWS V14.01,2013-01-10 03:15:00,
2013-01-09 21:20:00,21.4,2.4,30.73,South,177,0.0,0.0,43,0.00,,,0.00,VWS V14.01,2013-01-10 03:20:00,
2013-01-09 21:26:00,21.6,2.5,30.73,South,177,0.0,0.0,43,0.00,,,0.00,VWS V14.01,2013-01-10 03:26:00,
2013-01-09 21:31:00,21.6,2.5,30.73,South,177,0.0,0.0,43,0.00,,,0.00,VWS V14.01,2013-01-10 03:31:00,
2013-01-09 21:36:00,21.2,2.7,30.73,South,177,0.0,0.0,44,0.00,,,0.00,VWS V14.01,2013-01-10 03:36:00,
2013-01-09 21:41:00,21.2,2.7,30.73,South,177,0.0,0.0,44,0.00,,,0.00,VWS V14.01,2013-01-10 03:41:00,
2013-01-09 21:46:00,21.2,2.7,30.73,South,177,0.0,0.0,44,0.00,,,0.00,VWS V14.01,2013-01-10 03:46:00,
2013-01-09 21:51:00,20.8,2.4,30.73,South,177,0.0,0.0,44,0.00,,,0.00,VWS V14.01,2013-01-10 03:51:00,
2013-01-09 21:56:00,20.8,2.4,30.73,South,177,0.0,0.0,44,0.00,,,0.00,VWS V14.01,2013-01-10 03:56:00,
2013-01-09 22:01:00,21.2,2.7,30.73,South,177,0.0,0.0,44,0.00,,,0.00,VWS V14.01,2013-01-10 04:01:00,
2013-01-09 22:06:00,21.2,2.7,30.73,South,177,0.0,0.0,44,0.00,,,0.00,VWS V14.01,2013-01-10 04:06:00,
2013-01-09 22:11:00,21.2,2.7,30.73,South,177,0.0,0.0,44,0.00,,,0.00,VWS V14.01,2013-01-10 04:11:00,
2013-01-09 22:16:00,21.2,3.2,30.73,South,177,0.0,0.0,45,0.00,,,0.00,VWS V14.01,2013-01-10 04:16:00,
2013-01-09 22:21:00,20.7,2.2,30.73,South,177,0.0,0.0,44,0.00,,,0.00,VWS V14.01,2013-01-10 04:21:00,
2013-01-09 22:27:00,20.1,1.7,30.70,South,177,0.0,0.0,44,0.00,,,0.00,VWS V14.01,2013-01-10 04:27:00,
2013-01-09 22:32:00,19.8,1.4,30.70,South,177,0.0,0.0,44,0.00,,,0.00,VWS V14.01,2013-01-10 04:32:00,
2013-01-09 22:37:00,19.8,1.9,30.70,South,177,0.0,0.0,45,0.00,,,0.00,VWS V14.01,2013-01-10 04:37:00,
2013-01-09 22:42:00,19.9,2.0,30.70,South,177,0.0,0.0,45,0.00,,,0.00,VWS V14.01,2013-01-10 04:42:00,
2013-01-09 22:47:00,20.7,3.2,30.70,South,177,0.0,0.0,46,0.00,,,0.00,VWS V14.01,2013-01-10 04:47:00,
2013-01-09 22:52:00,21.4,3.8,30.70,South,177,0.0,0.0,46,0.00,,,0.00,VWS V14.01,2013-01-10 04:52:00,
2013-01-09 22:57:00,21.7,4.6,30.73,South,177,4.0,4.0,47,0.00,,,0.00,VWS V14.01,2013-01-10 04:57:00,
2013-01-09 23:00:00,21.7,5.1,30.73,SSE,153,4.9,4.9,48,0.00,,,0.00,VWS V14.01,2013-01-10 05:00:00,
2013-01-09 23:01:00,21.7,5.5,30.73,SSE,165,4.0,5.4,49,0.00,,,0.00,VWS V14.01,2013-01-10 05:01:00,
2013-01-09 23:03:00,21.7,5.5,30.73,SSE,160,2.7,3.1,49,0.00,,,0.00,VWS V14.01,2013-01-10 05:03:00,
2013-01-09 23:08:00,21.7,6.4,30.73,SSE,154,3.6,4.9,51,0.00,,,0.00,VWS V14.01,2013-01-10 05:08:00,
2013-01-09 23:14:00,22.3,7.3,30.73,SSE,166,4.0,4.0,52,0.00,,,0.00,VWS V14.01,2013-01-10 05:14:00,
2013-01-09 23:19:00,22.6,8.1,30.73,SSE,162,3.1,3.1,53,0.00,,,0.00,VWS V14.01,2013-01-10 05:19:00,
2013-01-09 23:24:00,22.8,8.3,30.73,SSE,162,2.7,2.7,53,0.00,,,0.00,VWS V14.01,2013-01-10 05:24:00,
2013-01-09 23:29:00,23.0,8.4,30.73,SSE,162,2.7,4.0,53,0.00,,,0.00,VWS V14.01,2013-01-10 05:29:00,
2013-01-09 23:34:00,23.2,8.2,30.73,SSE,162,3.6,3.6,52,0.00,,,0.00,VWS V14.01,2013-01-10 05:34:00,
2013-01-09 23:39:00,23.5,8.5,30.73,SSE,147,4.0,4.0,52,0.00,,,0.00,VWS V14.01,2013-01-10 05:39:00,
2013-01-09 23:44:00,23.9,8.0,30.70,SSE,156,4.9,4.9,50,0.00,,,0.00,VWS V14.01,2013-01-10 05:44:00,
2013-01-09 23:49:00,24.1,5.8,30.70,SSE,166,7.6,7.6,45,0.00,,,0.00,VWS V14.01,2013-01-10 05:49:00,
2013-01-09 23:54:00,24.8,6.0,30.73,SSE,163,5.4,7.6,44,0.00,,,0.00,VWS V14.01,2013-01-10 05:54:00,
2013-01-09 23:59:00,25.5,5.1,30.73,SSE,158,4.0,5.8,41,0.00,,,0.00,VWS V14.01,2013-01-10 05:59:00,